Oakland, MD

6:16 AM EDT on July 22, 2017 (GMT -0400)
Oakland

Weather History for K2G4 - October, 2012

Change the Weather History Date:

Tuesday, October 16, 2012

  Actual Average (KMGW) Record (KMGW)
Temperature  
Mean Temperature 44 °F -  
Max Temperature 50 °F 64 °F 82 °F (1962)
Min Temperature 37 °F 44 °F 32 °F (1991)
Degree Days  
Heating Degree Days 22    
Moisture  
Dew Point 38 °F    
Average Humidity 88    
Maximum Humidity 100    
Minimum Humidity 62    
Precipitation  
Precipitation 0.00 in - - ()
Sea Level Pressure  
Sea Level Pressure 29.91 in    
Wind  
Wind Speed 8 mph (West)    
Max Wind Speed 13 mph    
Max Gust Speed 20 mph    
Visibility 9 miles    
Events      
Averages and records for this station are not official NWS values.
T = Trace of Precipitation, MM = Missing Value Source: NWS Daily Summary

Daily Weather History Graph

Daily Weather History Graph

Search for Another Location

Airport or City:

Trip Planner

Search our weather history database for the weather conditions in past years. The results will help you decide how hot, cold, wet, or windy it might be!

Date:

Astronomy

Oct. 16, 2012 Rise Set
Actual Time 7:28 AM EDT 6:36 PM EDT
Civil Twilight 7:01 AM EDT 7:03 PM EDT
Nautical Twilight 6:30 AM EDT 7:34 PM EDT
Astronomical Twilight 5:59 AM EDT 8:05 PM EDT
Moon 8:49 AM EDT (10/16) 7:19 PM EDT (10/16)
Length of Visible Light 12h 01m
Length of Day
11h 07m
New Moon, 2% of the Moon is Illuminated
Oct 16
New Moon
Oct 21
First Quarter
Oct 29
Full
Nov 6
Last Quarter
Nov 13
New

Hourly Weather History & Observations

Time (EDT) Temp. Windchill Dew Point Humidity Pressure Visibility Wind Dir Wind Speed Gust Speed Precip Events Conditions
12:05 AM 41.0 °F 35.8 °F 41.0 °F 100% 29.87 in 3.0 mi WNW 8.1 mph 16.1 mph N/A   Overcast
12:25 AM 41.0 °F 33.9 °F 41.0 °F 100% 29.86 in 2.0 mi West 12.7 mph 18.4 mph N/A   Overcast
12:50 AM 41.0 °F 35.8 °F 41.0 °F 100% 29.86 in 2.0 mi WNW 8.1 mph 17.3 mph N/A   Overcast
1:10 AM 41.0 °F 36.4 °F 41.0 °F 100% 29.87 in 3.0 mi WNW 6.9 mph 19.6 mph N/A   Overcast
1:30 AM 41.0 °F 34.3 °F 41.0 °F 100% 29.87 in 3.0 mi WNW 11.5 mph 17.3 mph N/A   Overcast
2:15 AM 41.0 °F 35.2 °F 41.0 °F 100% 29.87 in 5.0 mi WNW 9.2 mph 16.1 mph N/A   Overcast
2:35 AM 41.0 °F 35.2 °F 41.0 °F 100% 29.88 in 5.0 mi WNW 9.2 mph - N/A   Overcast
2:55 AM 41.0 °F 35.2 °F 41.0 °F 100% 29.88 in 7.0 mi West 9.2 mph - N/A   Overcast
3:15 AM 39.2 °F 33.6 °F 39.2 °F 100% 29.88 in 7.0 mi WNW 8.1 mph - N/A   Overcast
3:40 AM 39.2 °F 33.0 °F 39.2 °F 100% 29.88 in 7.0 mi WNW 9.2 mph - N/A   Overcast
4:00 AM 39.2 °F 34.2 °F 39.2 °F 100% 29.88 in 7.0 mi WNW 6.9 mph - N/A   Overcast
4:20 AM 39.2 °F 34.2 °F 39.2 °F 100% 29.88 in 7.0 mi West 6.9 mph - N/A   Overcast
4:40 AM 39.2 °F 35.0 °F 39.2 °F 100% 29.88 in 10.0 mi WNW 5.8 mph - N/A   Overcast
5:05 AM 39.2 °F 33.0 °F 39.2 °F 100% 29.88 in 10.0 mi NW 9.2 mph - N/A   Overcast
6:10 AM 39.2 °F 35.0 °F 39.2 °F 100% 29.90 in 7.0 mi West 5.8 mph - N/A   Overcast
6:50 AM 37.4 °F 32.8 °F 37.4 °F 100% 29.91 in 7.0 mi West 5.8 mph - N/A   Overcast
7:10 AM 37.4 °F 32.1 °F 37.4 °F 100% 29.91 in 10.0 mi WNW 6.9 mph - N/A   Overcast
7:35 AM 37.4 °F 32.8 °F 37.4 °F 100% 29.92 in 10.0 mi West 5.8 mph - N/A   Overcast
7:55 AM 37.4 °F 32.1 °F 37.4 °F 100% 29.93 in 10.0 mi West 6.9 mph - N/A   Overcast
8:15 AM 37.4 °F 33.8 °F 37.4 °F 100% 29.93 in 10.0 mi West 4.6 mph - N/A   Overcast
8:35 AM 37.4 °F 31.4 °F 37.4 °F 100% 29.94 in 10.0 mi West 8.1 mph - N/A   Overcast
9:00 AM 37.4 °F 31.4 °F 37.4 °F 100% 29.94 in 10.0 mi WNW 8.1 mph - N/A   Overcast
9:20 AM 37.4 °F 30.8 °F 37.4 °F 100% 29.95 in 10.0 mi West 9.2 mph - N/A   Overcast
10:00 AM 37.4 °F 32.1 °F 37.4 °F 100% 29.97 in 10.0 mi West 6.9 mph - N/A   Overcast
10:25 AM 39.2 °F 32.5 °F 37.4 °F 93% 29.96 in 10.0 mi West 10.4 mph - N/A   Overcast
10:45 AM 39.2 °F 35.9 °F 37.4 °F 93% 29.96 in 10.0 mi West 4.6 mph - N/A   Overcast
11:05 AM 39.2 °F 33.0 °F 37.4 °F 93% 29.95 in 10.0 mi West 9.2 mph - N/A   Overcast
11:25 AM 39.2 °F 34.2 °F 39.2 °F 100% 29.96 in 10.0 mi West 6.9 mph - N/A   Overcast
11:50 AM 41.0 °F 36.4 °F 39.2 °F 93% 29.96 in 10.0 mi WNW 6.9 mph - N/A   Overcast
12:10 PM 41.0 °F 35.2 °F 37.4 °F 87% 29.96 in 10.0 mi West 9.2 mph - N/A   Overcast
1:55 PM 46.4 °F 43.5 °F 37.4 °F 71% 29.93 in 10.0 mi NW 5.8 mph - N/A   Clear
2:15 PM 46.4 °F 42.4 °F 37.4 °F 71% 29.92 in 10.0 mi WNW 8.1 mph - N/A   Clear
3:00 PM 48.2 °F - 37.4 °F 66% 29.91 in 10.0 mi WNW 4.6 mph - N/A   Clear
3:40 PM 48.2 °F - 37.4 °F 66% 29.90 in 10.0 mi WNW 6.9 mph - N/A   Clear
4:00 PM 50.0 °F - 37.4 °F 62% 29.90 in 10.0 mi West 5.8 mph - N/A   Clear
4:05 PM 50.0 °F - 37.4 °F 62% 29.90 in 10.0 mi WNW 5.8 mph - N/A   Clear
4:25 PM 50.0 °F - 37.4 °F 62% 29.90 in 10.0 mi WNW 5.8 mph - N/A   Clear
4:45 PM 48.2 °F - 35.6 °F 62% 29.90 in 10.0 mi WNW 8.1 mph - N/A   Clear
5:05 PM 48.2 °F - 35.6 °F 62% 29.90 in 10.0 mi WNW 5.8 mph - N/A   Clear
5:30 PM 48.2 °F - 37.4 °F 66% 29.90 in 10.0 mi West 5.8 mph - N/A   Clear
5:50 PM 46.4 °F 45.2 °F 37.4 °F 71% 29.90 in 10.0 mi West 3.5 mph - N/A   Clear
6:10 PM 46.4 °F 43.5 °F 37.4 °F 71% 29.91 in 10.0 mi West 5.8 mph - N/A   Clear
6:30 PM 44.6 °F 43.1 °F 37.4 °F 76% 29.91 in 10.0 mi WSW 3.5 mph - N/A   Clear
6:55 PM 42.8 °F 41.1 °F 37.4 °F 81% 29.90 in 10.0 mi West 3.5 mph - N/A   Clear
7:35 PM 42.8 °F 39.3 °F 37.4 °F 81% 29.91 in 10.0 mi West 5.8 mph - N/A   Clear
7:55 PM 42.8 °F 38.6 °F 37.4 °F 81% 29.91 in 10.0 mi WSW 6.9 mph - N/A   Clear
8:40 PM 41.0 °F 37.1 °F 37.4 °F 87% 29.91 in 10.0 mi SW 5.8 mph - N/A   Clear
9:00 PM 41.0 °F 38.0 °F 37.4 °F 87% 29.91 in 10.0 mi SW 4.6 mph - N/A   Clear
9:20 PM 41.0 °F 37.1 °F 37.4 °F 87% 29.92 in 10.0 mi SW 5.8 mph - N/A   Clear
9:45 PM 41.0 °F 37.1 °F 37.4 °F 87% 29.91 in 10.0 mi SW 5.8 mph - N/A   Clear
10:05 PM 42.8 °F 40.1 °F 37.4 °F 81% 29.91 in 10.0 mi WSW 4.6 mph - N/A   Clear
10:25 PM 41.0 °F 38.0 °F 37.4 °F 87% 29.91 in 10.0 mi SSW 4.6 mph - N/A   Clear
10:45 PM 41.0 °F 36.4 °F 37.4 °F 87% 29.92 in 10.0 mi SSW 6.9 mph - N/A   Clear
11:10 PM 41.0 °F 38.0 °F 37.4 °F 87% 29.91 in 10.0 mi SSW 4.6 mph - N/A   Clear